SCP
1 1 1 1 0 0 0 0 0 0 0 1 1 0 0 0 0 0 0 0 0 0 0 0 0 0 0 0 0 0 0 0 0 0 0 0 0 0 0 0 0 0 0
1 1 1 1 0 0 0 0 0 0 1 1 1 1 0 0 0 0 0 0 0 0 0 0 0 0 0 0 0 0 0 0 0 0 0 0 0 0 0 0 0 0 0
1 1 1 1 0 0 0 0 0 0 1 1 1 1 1 0 0 0 0 0 0 0 0 0 0 0 0 0 0 0 0 0 0 0 0 0 0 0 0 0 0 0 0
1 1 1 1 0 0 0 0 1 1 1 1 1 1 1 1 0 0 0 0 0 0 0 0 0 0 0 0 0 0 0 0 0 0 0 0 0 0 0 0 0 0 0
1 1 1 1 1 0 0 1 1 1 1 1 1 1 1 1 0 0 0 0 0 0 0 0 0 0 0 0 0 0 0 0 0 0 0 0 0 0 0 0 0 0 0
1 1 1 1 1 0 1 1 1 1 1 0 0 1 1 1 0 0 0 0 1 1 1 1 0 0 0 0 0 0 0 0 0 0 0 0 0 0 0 0 0 0 0
0 0 1 1 1 0 0 0 0 0 0 0 0 1 1 1 1 1 1 1 1 1 1 1 1 1 0 0 0 0 0 0 0 0 0 0 0 0 0 0 0 0 0
0 0 1 1 1 1 1 1 1 1 1 1 1 1 1 1 1 1 1 1 1 1 1 1 1 1 1 1 0 0 0 0 0 0 0 0 0 0 0 0 0 0 0
1 1 1 1 1 1 1 1 1 1 1 1 1 1 1 1 1 1 1 1 1 1 1 1 1 1 1 1 1 1 0 0 0 0 0 0 1 0 0 0 0 0 0
1 1 1 1 1 2 2 2 2 2 2 2 2 1 1 1 1 1 1 1 1 1 1 1 1 1 1 1 1 1 1 1 0 0 0 1 1 1 0 0 0 1 1
2 2 2 2 2 2 2 3 3 3 3 3 2 2 2 2 1 1 1 2 1 1 1 1 1 1 1 1 1 1 1 1 0 0 1 1 1 1 1 1 1 1 1
3 3 3 3 3 2 3 4 4 4 4 3 3 3 3 3 2 2 2 2 2 1 1 1 1 1 1 1 1 1 1 1 1 1 1 2 2 1 1 1 1 1 1
4 4 3 3 3 3 4 5 5 4 4 4 4 4 4 4 4 3 3 3 3 2 2 2 2 1 1 1 2 1 1 1 1 1 1 2 2 1 1 1 1 1 1
4 4 3 3 3 4 4 5 5 4 4 4 5 6 5 5 5 5 4 4 4 3 2 2 2 2 2 2 2 2 1 1 1 1 2 2 2 2 1 1 1 1 1
4 4 4 4 4 4 4 4 4 4 3 4 6 6 6 6 5 5 5 5 5 4 3 3 2 2 2 2 2 1 1 1 1 1 2 2 2 2 1 1 1 1 1
4 4 4 4 4 4 4 3 3 3 4 5 6 7 6 6 6 6 6 6 6 5 4 3 3 3 2 2 2 1 1 1 1 1 1 2 2 1 1 1 1 1 1
3 3 3 3 3 3 3 2 2 2 3 5 7 7 6 6 6 6 7 7 7 7 5 4 3 3 3 2 2 1 1 1 1 1 1 1 1 1 1 1 1 1 1
2 2 2 2 2 2 2 2 2 2 3 5 6 6 5 5 5 5 6 7 7 7 5 3 3 3 3 2 2 2 2 2 1 1 1 1 1 1 1 1 1 1 1
2 2 2 1 1 1 1 1 1 1 2 3 3 4 4 4 4 5 5 6 6 5 4 3 2 2 2 2 2 1 1 2 1 1 1 1 1 1 1 1 1 1 1
2 2 2 1 1 1 1 1 1 1 1 2 2 2 3 3 3 4 4 4 4 4 3 2 2 2 2 2 1 1 1 1 1 1 1 1 1 1 1 1 1 1 1
2 1 1 1 1 1 1 1 1 1 1 1 1 1 1 2 2 4 4 3 3 3 3 3 2 2 2 2 1 1 1 1 1 1 1 1 1 1 1 1 1 1 1
1 1 1 1 1 1 1 1 1 1 1 1 1 1 1 1 2 3 3 3 3 2 3 3 3 2 2 1 1 1 1 1 1 1 1 1 0 0 0 0 0 0 0
0 0 0 1 1 1 1 1 1 1 1 1 1 1 1 1 1 2 2 3 3 2 2 2 2 2 1 1 1 1 1 0 0 0 0 0 0 0 0 0 0 0 0
0 0 0 0 0 0 0 0 0 0 1 1 1 0 0 0 1 1 1 2 2 2 2 2 1 1 1 1 1 0 0 0 0 0 0 0 0 0 0 0 0 0 0
0 0 0 0 0 0 0 0 0 0 0 0 0 0 0 0 0 1 1 1 2 2 2 2 1 1 1 1 1 0 0 0 0 0 0 0 0 0 0 0 0 0 0
0 0 0 0 0 0 0 0 0 0 0 0 0 0 0 0 0 0 1 1 1 2 2 2 1 1 1 1 1 0 0 0 0 0 0 0 0 0 0 0 0 0 0
Wind_Speed
14 19 21 18 17 15 14 13 12 12 12 13 13 14 13 13 12 12 12 11 10 9 8 8 8 8 8 8 8 9 9 10 10 9 9 9 9 9 9 8 7 10 12
16 20 21 18 17 15 14 13 12 12 12 12 13 13 12 12 11 11 11 11 10 9 8 8 8 8 8 8 8 8 9 9 9 9 9 10 9 9 8 5 3 10 11
17 19 20 17 16 15 14 13 12 12 11 11 11 12 11 11 10 10 10 10 9 8 7 7 7 8 7 7 7 7 8 8 8 8 9 8 10 8 7 6 8 11 10
17 18 17 17 16 15 14 13 12 12 11 10 10 10 10 10 9 9 9 9 9 8 7 7 7 7 7 7 6 6 6 6 6 8 8 6 8 11 7 7 8 9 9
16 15 17 17 15 14 13 12 12 11 11 10 10 10 10 9 9 9 9 9 9 9 9 8 7 7 7 7 6 6 5 5 5 9 5 5 6 11 8 7 7 8 8
15 15 18 16 15 14 12 12 11 11 10 10 10 10 10 10 10 10 10 9 9 8 9 9 8 7 7 7 7 6 5 5 8 7 5 5 6 10 9 9 8 8 8
14 13 18 15 14 13 12 12 11 10 10 10 10 10 9 9 10 10 11 11 10 8 8 8 8 7 7 8 8 8 8 7 9 5 5 5 5 8 8 10 10 9 9
13 12 16 14 12 12 11 11 10 10 10 10 10 10 9 9 8 8 9 9 9 8 8 7 8 8 8 9 9 9 9 11 12 8 7 7 7 7 7 10 10 11 11
11 11 12 13 13 12 10 10 10 10 10 10 10 11 11 10 9 9 8 9 9 9 9 9 9 10 10 10 10 11 11 12 13 8 9 7 11 9 10 11 12 12 12
9 9 9 9 10 11 12 12 11 11 12 12 12 12 12 12 12 12 11 12 11 11 11 11 11 12 12 12 13 13 13 12 14 11 8 7 13 11 12 13 14 15 15
10 8 8 9 8 8 8 10 12 12 13 13 14 15 13 12 13 13 15 13 14 13 13 13 13 13 13 14 15 14 13 11 13 10 8 9 13 12 13 12 13 16 17
12 11 9 9 9 8 6 6 7 9 11 12 11 13 12 11 10 10 9 12 14 15 15 15 14 14 14 11 15 16 10 14 12 8 6 12 12 12 13 13 12 15 17
12 10 10 8 7 6 5 5 5 5 7 10 13 12 10 9 8 9 7 9 12 15 14 14 15 13 12 10 8 10 11 10 8 7 8 15 13 14 15 14 13 13 16
9 9 6 4 3 3 4 4 5 5 5 7 9 12 10 7 9 8 7 8 8 8 10 10 8 12 12 12 12 11 11 8 8 7 6 13 13 14 15 15 14 14 15
5 3 2 2 3 4 4 5 6 6 7 8 8 9 11 9 9 9 7 7 10 8 8 9 11 11 12 12 12 13 13 13 12 10 6 11 13 14 15 15 15 15 15
5 5 5 6 7 7 5 5 6 7 7 9 9 11 12 9 9 9 9 9 9 9 9 8 10 10 10 10 12 13 14 13 12 12 11 10 15 15 15 14 14 14 15
7 6 6 6 7 7 7 7 7 7 9 9 9 10 11 10 10 9 8 8 8 8 9 8 10 8 9 10 12 13 12 13 12 12 12 9 10 16 16 14 14 13 14
5 5 5 6 6 7 7 7 7 8 9 8 8 8 10 9 9 8 7 7 7 6 7 7 8 8 8 9 9 9 9 9 12 12 11 11 10 9 14 17 15 14 15
5 5 5 5 6 7 7 7 8 7 7 6 6 6 6 6 6 5 4 5 6 6 6 8 7 7 8 8 8 9 9 9 9 10 11 11 10 9 8 11 15 13 15
6 5 6 5 7 8 6 6 6 6 6 5 5 5 5 3 3 3 3 4 5 5 6 6 6 6 6 6 8 7 7 8 8 8 9 9 9 10 11 9 9 12 17
7 7 7 8 8 7 7 8 8 7 6 5 4 4 4 5 4 3 3 3 4 5 6 7 6 7 7 6 6 7 7 9 9 8 8 9 10 10 10 9 9 8 9
8 8 8 9 9 9 8 7 7 8 7 5 5 5 6 6 5 4 3 4 5 6 7 7 6 6 6 6 6 7 7 8 8 9 8 8 9 9 9 10 9 8 8
8 9 8 9 9 9 10 8 8 7 6 5 6 5 7 7 6 5 5 6 7 7 7 8 8 9 7 7 7 7 6 5 3 6 7 6 6 6 7 7 8 8 9
9 9 9 10 10 9 10 10 11 9 9 9 7 6 7 6 6 6 6 6 7 7 8 9 9 8 9 8 7 7 7 5 5 3 6 7 7 7 7 6 7 8 8
11 10 10 10 10 11 11 11 11 11 10 8 8 8 7 6 5 5 5 5 6 6 8 9 8 9 8 9 7 7 7 6 8 6 4 4 6 7 7 7 7 6 7
11 10 10 10 11 12 12 12 12 13 12 12 11 9 8 6 4 4 4 4 5 5 6 7 8 11 9 9 8 7 6 7 7 7 7 5 5 5 5 4 5 4 5
Wind_Direction
154 147 149 158 160 158 153 147 144 143 146 152 155 155 155 156 156 155 154 152 151 150 146 139 133 134 136 129 119 113 114 118 123 125 125 121 116 114 116 129 156 116 111
149 144 150 157 160 160 155 150 146 145 145 148 152 154 155 156 158 158 157 157 157 156 150 145 138 133 131 127 122 119 121 125 130 134 137 133 124 120 123 127 48 106 127
147 143 152 156 159 160 157 153 150 149 148 149 152 155 157 159 160 160 161 162 163 161 157 154 149 140 134 129 125 125 127 132 142 151 177 160 131 131 130 122 106 125 134
148 146 153 151 157 159 158 156 154 153 152 155 158 161 164 166 167 168 168 168 168 168 164 159 155 148 141 136 134 135 139 146 156 180 196 145 142 134 146 142 134 137 139
144 145 139 151 156 158 159 158 157 157 158 162 166 169 172 175 179 180 179 177 178 178 170 162 159 153 149 147 147 149 157 164 170 222 163 144 132 138 159 163 154 148 145
145 151 138 154 155 157 159 160 161 162 164 169 172 176 179 182 186 189 187 185 189 184 170 164 162 158 157 160 163 169 179 185 209 207 157 178 147 149 173 179 177 168 162
152 150 141 155 155 157 160 163 166 169 173 178 180 184 187 190 193 195 193 193 196 187 174 171 173 175 179 180 183 186 193 202 235 208 184 196 139 134 184 189 191 185 178
151 149 136 152 157 159 163 167 171 176 182 187 190 194 198 201 204 205 201 199 199 196 193 193 194 195 197 198 198 199 202 219 221 218 211 207 139 157 203 202 199 199 191
149 145 145 162 166 167 168 175 181 185 190 195 199 201 204 207 211 216 216 215 213 210 209 209 209 208 206 206 207 208 209 223 250 221 217 214 152 183 214 216 208 205 203
139 147 150 168 171 179 179 181 190 197 198 201 206 208 209 211 214 218 222 217 223 222 219 218 216 215 214 213 213 212 213 217 239 234 218 190 155 192 218 223 216 208 206
147 155 159 162 170 185 196 180 195 205 209 210 210 211 214 220 216 209 219 212 219 228 229 227 224 224 223 220 221 219 216 229 227 236 221 154 162 198 221 228 220 211 207
155 161 167 170 173 187 198 192 211 218 212 219 224 213 214 223 233 232 202 207 223 232 236 235 235 233 232 229 213 211 224 228 242 230 210 153 178 207 223 229 224 215 211
159 166 174 175 183 198 204 215 222 233 230 227 229 227 227 227 226 232 224 208 221 228 233 225 225 230 229 231 234 216 223 231 229 233 209 168 191 213 223 226 226 222 217
159 165 170 170 193 241 272 259 245 247 252 253 242 236 232 231 229 227 227 232 227 224 229 238 234 233 235 235 234 237 234 234 238 236 212 171 193 214 226 228 226 226 223
129 128 86 6 338 325 314 303 293 283 274 267 265 252 244 240 236 229 228 230 238 240 232 233 241 241 239 237 237 234 235 236 239 240 223 187 200 214 225 229 227 228 228
54 42 19 356 345 334 324 315 303 290 282 276 270 261 252 247 244 238 232 230 235 240 244 245 247 247 246 246 243 240 237 235 234 235 238 212 204 211 219 225 224 224 227
33 21 358 344 346 339 327 316 301 293 290 285 280 271 257 249 246 242 239 236 237 238 241 244 250 249 247 244 244 242 238 237 234 230 233 235 218 205 209 215 220 223 224
28 14 357 345 343 332 320 311 303 298 295 290 286 276 264 255 248 245 240 242 243 242 238 237 242 242 243 246 246 244 240 238 238 236 235 232 236 227 204 206 214 220 224
33 23 16 360 347 335 322 310 303 302 297 291 292 285 279 274 266 253 245 248 248 243 239 242 234 238 240 240 240 236 237 235 236 235 236 238 235 238 239 192 200 215 224
44 37 25 16 7 343 334 319 311 305 301 299 300 294 289 298 309 286 259 251 249 244 237 236 241 236 246 238 245 240 229 230 228 232 234 235 234 234 237 236 214 211 216
47 37 25 16 10 354 351 339 333 324 315 310 311 327 324 322 326 308 276 266 245 245 245 236 228 226 234 234 243 242 236 233 235 236 238 247 242 237 240 239 241 242 211
35 24 15 13 8 354 354 334 324 320 312 318 325 329 329 321 307 292 271 260 247 244 242 242 229 244 236 222 242 249 242 224 214 229 230 229 240 236 230 227 231 231 250
14 5 0 354 345 347 338 328 333 325 316 330 334 334 337 330 317 294 269 257 253 247 238 233 226 231 240 226 228 246 250 245 205 185 213 223 220 225 228 223 226 230 233
351 347 344 339 334 330 321 327 330 325 328 333 327 333 329 328 328 317 287 264 255 249 246 236 227 232 239 238 215 233 263 310 284 210 186 198 205 217 235 233 234 228 232
336 335 334 333 328 324 317 309 304 309 317 317 321 318 314 315 314 319 311 289 267 257 250 245 237 231 232 242 234 215 219 223 241 268 244 192 198 209 218 229 243 246 240
329 330 331 334 329 325 317 311 301 300 301 303 304 305 302 302 294 292 295 298 287 276 264 253 246 232 237 239 247 238 223 222 220 227 241 236 231 219 213 234 239 240 244